owner,sensor,date,latitude,longitude,vertical_datum,direction_of_sea_water_velocity,sea_water_speed,upward_sea_water_velocity,qcFlag 
TABS,ioos:station:wmo:42047:1,2016-07-01T00:00:00Z,27.8966,-93.5973,2.0,144.2788118,42.494542,-99999.0,'11111222,11111222,99999999' 
TABS,ioos:station:wmo:42047:1,2016-07-01T00:30:00Z,27.8966,-93.5973,2.0,184.5371749,48.16094061,-99999.0,'11111222,11111222,99999999' 
TABS,ioos:station:wmo:42047:1,2016-07-01T01:00:00Z,27.8966,-93.5973,2.0,218.2478092,53.46746768,-99999.0,'11111222,11111222,99999999' 
TABS,ioos:station:wmo:42047:1,2016-07-01T01:30:00Z,27.8966,-93.5973,2.0,240.5119143,58.58963731,-99999.0,'11111222,11111222,99999999' 
TABS,ioos:station:wmo:42047:1,2016-07-01T02:00:00Z,27.8966,-93.5973,2.0,244.1039876,62.39502705,-99999.0,'11111222,11111222,99999999' 
TABS,ioos:station:wmo:42047:1,2016-07-01T02:30:00Z,27.8966,-93.5973,2.0,245.9500257,62.76877249,-99999.0,'11111222,11111222,99999999' 
TABS,ioos:station:wmo:42047:1,2016-07-01T03:00:00Z,27.8966,-93.5973,2.0,256.4104147,59.37210288,-99999.0,'11111222,11111222,99999999' 
TABS,ioos:station:wmo:42047:1,2016-07-01T03:30:00Z,27.8966,-93.5973,2.0,260.7959332,56.081998,-99999.0,'11111222,11111222,99999999' 
TABS,ioos:station:wmo:42047:1,2016-07-01T04:00:00Z,27.8966,-93.5973,2.0,268.1135576,55.2999575,-99999.0,'11111222,11111222,99999999' 
TABS,ioos:station:wmo:42047:1,2016-07-01T04:30:00Z,27.8966,-93.5973,2.0,275.8103943,53.34402403,-99999.0,'11111222,11111222,99999999' 
TABS,ioos:station:wmo:42047:1,2016-07-01T05:00:00Z,27.8966,-93.5973,2.0,276.9769904,49.31513561,-99999.0,'11111222,11111222,99999999' 
TABS,ioos:station:wmo:42047:1,2016-07-01T05:30:00Z,27.8966,-93.5973,2.0,267.9896203,49.04017231,-99999.0,'11111222,11111222,99999999' 
TABS,ioos:station:wmo:42047:1,2016-07-01T06:00:00Z,27.8966,-93.5973,2.0,260.6110794,49.77676667,-99999.0,'11111222,11111222,99999999' 
TABS,ioos:station:wmo:42047:1,2016-07-01T06:30:00Z,27.8966,-93.5973,2.0,266.6118242,47.38280279,-99999.0,'11111222,11111222,99999999' 
TABS,ioos:station:wmo:42047:1,2016-07-01T07:00:00Z,27.8966,-93.5973,2.0,272.1825401,45.17275728,-99999.0,'11111222,11111222,99999999' 
TABS,ioos:station:wmo:42047:1,2016-07-01T07:30:00Z,27.8966,-93.5973,2.0,270.6631443,44.09294955,-99999.0,'11111222,11111222,99999999' 
TABS,ioos:station:wmo:42047:1,2016-07-01T08:00:00Z,27.8966,-93.5973,2.0,268.4888696,36.7927887,-99999.0,'11111222,11111222,99999999' 
TABS,ioos:station:wmo:42047:1,2016-07-01T08:30:00Z,27.8966,-93.5973,2.0,272.0617906,35.86320817,-99999.0,'11111222,11111222,99999999' 
TABS,ioos:station:wmo:42047:1,2016-07-01T09:00:00Z,27.8966,-93.5973,2.0,282.7273126,35.13318232,-99999.0,'11111222,11111222,99999999' 
TABS,ioos:station:wmo:42047:1,2016-07-01T09:30:00Z,27.8966,-93.5973,2.0,280.9732616,36.6704295,-99999.0,'11111222,11111222,99999999' 
TABS,ioos:station:wmo:42047:1,2016-07-01T10:00:00Z,27.8966,-93.5973,2.0,287.371395,32.18804902,-99999.0,'11111222,11111222,99999999' 
TABS,ioos:station:wmo:42047:1,2016-07-01T10:30:00Z,27.8966,-93.5973,2.0,284.324547,32.82033516,-99999.0,'11111222,11111222,99999999' 
TABS,ioos:station:wmo:42047:1,2016-07-01T11:00:00Z,27.8966,-93.5973,2.0,292.1369371,25.07858449,-99999.0,'11111222,11111222,99999999' 
TABS,ioos:station:wmo:42047:1,2016-07-01T11:30:00Z,27.8966,-93.5973,2.0,328.2613558,23.70498893,-99999.0,'11111222,11111222,99999999' 
TABS,ioos:station:wmo:42047:1,2016-07-01T12:00:00Z,27.8966,-93.5973,2.0,341.2507075,23.61308324,-99999.0,'11111222,11111222,99999999' 
TABS,ioos:station:wmo:42047:1,2016-07-01T12:30:00Z,27.8966,-93.5973,2.0,357.3354728,30.54302703,-99999.0,'11111222,11111222,99999999' 
TABS,ioos:station:wmo:42047:1,2016-07-01T13:00:00Z,27.8966,-93.5973,2.0,350.6055527,36.20561421,-99999.0,'11111222,11111222,99999999' 
TABS,ioos:station:wmo:42047:1,2016-07-01T13:30:00Z,27.8966,-93.5973,2.0,355.9976255,39.82714275,-99999.0,'11111222,11111222,99999999' 
TABS,ioos:station:wmo:42047:1,2016-07-01T14:00:00Z,27.8966,-93.5973,2.0,8.883358855,42.28722384,-99999.0,'11111222,11111222,99999999' 
TABS,ioos:station:wmo:42047:1,2016-07-01T14:30:00Z,27.8966,-93.5973,2.0,6.337507332,43.93849565,-99999.0,'11111222,11111222,99999999' 
TABS,ioos:station:wmo:42047:1,2016-07-01T15:00:00Z,27.8966,-93.5973,2.0,21.95108753,42.69521753,-99999.0,'11111222,11111222,99999999' 
TABS,ioos:station:wmo:42047:1,2016-07-01T15:30:00Z,27.8966,-93.5973,2.0,29.3059837,46.29484313,-99999.0,'11111222,11111222,99999999' 
TABS,ioos:station:wmo:42047:1,2016-07-01T16:00:00Z,27.8966,-93.5973,2.0,34.89013764,44.632645,-99999.0,'11111222,11111222,99999999' 
TABS,ioos:station:wmo:42047:1,2016-07-01T16:30:00Z,27.8966,-93.5973,2.0,42.66661702,49.84286208,-99999.0,'11111222,11111222,99999999' 
TABS,ioos:station:wmo:42047:1,2016-07-01T17:00:00Z,27.8966,-93.5973,2.0,52.58640919,48.2581734,-99999.0,'11111222,11111222,99999999' 
TABS,ioos:station:wmo:42047:1,2016-07-01T17:30:00Z,27.8966,-93.5973,2.0,59.74688408,50.75204922,-99999.0,'11111222,11111222,99999999' 
TABS,ioos:station:wmo:42047:1,2016-07-01T18:00:00Z,27.8966,-93.5973,2.0,75.84956668,37.71436464,-99999.0,'11111222,11111222,99999999' 
TABS,ioos:station:wmo:42047:1,2016-07-01T18:30:00Z,27.8966,-93.5973,2.0,86.17060045,37.28324154,-99999.0,'11111222,11111222,99999999' 
TABS,ioos:station:wmo:42047:1,2016-07-01T19:00:00Z,27.8966,-93.5973,2.0,92.5813994,31.97244439,-99999.0,'11111222,11111222,99999999' 
TABS,ioos:station:wmo:42047:1,2016-07-01T19:30:00Z,27.8966,-93.5973,2.0,102.3972862,35.44653015,-99999.0,'11111222,11111222,99999999' 
TABS,ioos:station:wmo:42047:1,2016-07-01T20:00:00Z,27.8966,-93.5973,2.0,112.1955183,38.33028176,-99999.0,'11111222,11111222,99999999' 
TABS,ioos:station:wmo:42047:1,2016-07-01T20:30:00Z,27.8966,-93.5973,2.0,116.4486086,35.22708759,-99999.0,'11111222,11111222,99999999' 
TABS,ioos:station:wmo:42047:1,2016-07-01T21:00:00Z,27.8966,-93.5973,2.0,116.658355,41.16606612,-99999.0,'11111222,11111222,99999999' 
TABS,ioos:station:wmo:42047:1,2016-07-01T21:30:00Z,27.8966,-93.5973,2.0,118.6310878,35.35285703,-99999.0,'11111222,11111222,99999999' 
TABS,ioos:station:wmo:42047:1,2016-07-01T22:00:00Z,27.8966,-93.5973,2.0,121.3781659,29.63401593,-99999.0,'11111222,11111222,99999999' 
TABS,ioos:station:wmo:42047:1,2016-07-01T22:30:00Z,27.8966,-93.5973,2.0,130.6362528,46.09556161,-99999.0,'11111222,11111222,99999999' 
TABS,ioos:station:wmo:42047:1,2016-07-01T23:00:00Z,27.8966,-93.5973,2.0,140.2061531,37.17038741,-99999.0,'11111222,11111222,99999999' 
TABS,ioos:station:wmo:42047:1,2016-07-01T23:30:00Z,27.8966,-93.5973,2.0,158.5715629,36.21321582,-99999.0,'11111222,11111222,99999999' 
TABS,ioos:station:wmo:42047:1,2016-07-02T00:00:00Z,27.8966,-93.5973,2.0,166.9055889,44.40457296,-99999.0,'11111222,11111222,99999999' 
TABS,ioos:station:wmo:42047:1,2016-07-02T00:30:00Z,27.8966,-93.5973,2.0,174.6046128,42.11658225,-99999.0,'11111222,11111222,99999999' 
TABS,ioos:station:wmo:42047:1,2016-07-02T01:00:00Z,27.8966,-93.5973,2.0,185.4264459,39.75819412,-99999.0,'11111222,11111222,99999999' 
TABS,ioos:station:wmo:42047:1,2016-07-02T01:30:00Z,27.8966,-93.5973,2.0,188.4260151,29.00307915,-99999.0,'11111222,11111222,99999999' 
TABS,ioos:station:wmo:42047:1,2016-07-02T02:00:00Z,27.8966,-93.5973,2.0,188.9616294,27.66776102,-99999.0,'11111222,11111222,99999999' 
TABS,ioos:station:wmo:42047:1,2016-07-02T02:30:00Z,27.8966,-93.5973,2.0,186.3399665,33.86714042,-99999.0,'11111222,11111222,99999999' 
TABS,ioos:station:wmo:42047:1,2016-07-02T03:00:00Z,27.8966,-93.5973,2.0,198.7190702,42.68811193,-99999.0,'11111222,11111222,99999999' 
TABS,ioos:station:wmo:42047:1,2016-07-02T03:30:00Z,27.8966,-93.5973,2.0,0.0,0.0,-99999.0,'11133222,11111222,99999999' 
TABS,ioos:station:wmo:42047:1,2016-07-02T04:00:00Z,27.8966,-93.5973,2.0,205.3920132,46.10396295,-99999.0,'11111222,11111222,99999999' 
TABS,ioos:station:wmo:42047:1,2016-07-02T04:30:00Z,27.8966,-93.5973,2.0,0.0,0.0,-99999.0,'11133222,11111222,99999999' 
TABS,ioos:station:wmo:42047:1,2016-07-02T05:00:00Z,27.8966,-93.5973,2.0,213.5074228,48.79999693,-99999.0,'11111222,11111222,99999999' 
TABS,ioos:station:wmo:42047:1,2016-07-02T05:30:00Z,27.8966,-93.5973,2.0,217.5757948,46.57153745,-99999.0,'11111222,11111222,99999999' 
TABS,ioos:station:wmo:42047:1,2016-07-02T06:00:00Z,27.8966,-93.5973,2.0,233.8250507,45.4893493,-99999.0,'11111222,11111222,99999999' 
TABS,ioos:station:wmo:42047:1,2016-07-02T06:30:00Z,27.8966,-93.5973,2.0,227.6808473,46.10433494,-99999.0,'11111222,11111222,99999999' 
TABS,ioos:station:wmo:42047:1,2016-07-02T07:00:00Z,27.8966,-93.5973,2.0,236.1758737,39.21741067,-99999.0,'11111222,11111222,99999999' 
TABS,ioos:station:wmo:42047:1,2016-07-02T07:30:00Z,27.8966,-93.5973,2.0,247.7853717,29.12149893,-99999.0,'11111222,11111222,99999999' 
TABS,ioos:station:wmo:42047:1,2016-07-02T08:00:00Z,27.8966,-93.5973,2.0,259.0253072,25.1091796,-99999.0,'11111222,11111222,99999999' 
TABS,ioos:station:wmo:42047:1,2016-07-02T08:30:00Z,27.8966,-93.5973,2.0,278.0364816,18.09771533,-99999.0,'11111222,11111222,99999999' 
TABS,ioos:station:wmo:42047:1,2016-07-02T09:00:00Z,27.8966,-93.5973,2.0,307.1066325,19.87416917,-99999.0,'11111222,11111222,99999999' 
TABS,ioos:station:wmo:42047:1,2016-07-02T09:30:00Z,27.8966,-93.5973,2.0,311.0070076,15.63673879,-99999.0,'11111222,11111222,99999999' 
TABS,ioos:station:wmo:42047:1,2016-07-02T10:00:00Z,27.8966,-93.5973,2.0,324.7578741,13.30936888,-99999.0,'11111222,11111222,99999999' 
TABS,ioos:station:wmo:42047:1,2016-07-02T10:30:00Z,27.8966,-93.5973,2.0,348.7451328,16.3953164,-99999.0,'11111222,11111222,99999999' 
TABS,ioos:station:wmo:42047:1,2016-07-02T11:00:00Z,27.8966,-93.5973,2.0,349.8178145,20.92964405,-99999.0,'11111222,11111222,99999999' 
TABS,ioos:station:wmo:42047:1,2016-07-02T11:30:00Z,27.8966,-93.5973,2.0,350.3832562,24.36237468,-99999.0,'11111222,11111222,99999999' 
TABS,ioos:station:wmo:42047:1,2016-07-02T12:00:00Z,27.8966,-93.5973,2.0,359.3514683,30.9119815,-99999.0,'11111222,11144222,99999999' 
TABS,ioos:station:wmo:42047:1,2016-07-02T12:30:00Z,27.8966,-93.5973,2.0,359.7778039,33.49025231,-99999.0,'11111222,11144222,99999999' 
TABS,ioos:station:wmo:42047:1,2016-07-02T13:00:00Z,27.8966,-93.5973,2.0,10.78618335,31.52698685,-99999.0,'11111222,11111222,99999999' 
TABS,ioos:station:wmo:42047:1,2016-07-02T13:30:00Z,27.8966,-93.5973,2.0,18.19497311,25.6526217,-99999.0,'11111222,11111222,99999999' 
TABS,ioos:station:wmo:42047:1,2016-07-02T14:00:00Z,27.8966,-93.5973,2.0,23.27475427,26.7248218,-99999.0,'11111222,11111222,99999999' 
TABS,ioos:station:wmo:42047:1,2016-07-02T14:30:00Z,27.8966,-93.5973,2.0,28.27170184,26.58074867,-99999.0,'11111222,11111222,99999999' 
TABS,ioos:station:wmo:42047:1,2016-07-02T15:00:00Z,27.8966,-93.5973,2.0,33.57549883,29.09408359,-99999.0,'11111222,11111222,99999999' 
TABS,ioos:station:wmo:42047:1,2016-07-02T15:30:00Z,27.8966,-93.5973,2.0,36.1038105,30.36071475,-99999.0,'11111222,11111222,99999999' 
TABS,ioos:station:wmo:42047:1,2016-07-02T16:00:00Z,27.8966,-93.5973,2.0,48.47155526,30.36230887,-99999.0,'11111222,11111222,99999999' 
TABS,ioos:station:wmo:42047:1,2016-07-02T16:30:00Z,27.8966,-93.5973,2.0,67.61357014,24.55020367,-99999.0,'11111222,11111222,99999999' 
TABS,ioos:station:wmo:42047:1,2016-07-02T17:00:00Z,27.8966,-93.5973,2.0,82.34559245,24.70009109,-99999.0,'11111222,11111222,99999999' 
TABS,ioos:station:wmo:42047:1,2016-07-02T17:30:00Z,27.8966,-93.5973,2.0,80.85089747,23.45844198,-99999.0,'11111222,11111222,99999999' 
TABS,ioos:station:wmo:42047:1,2016-07-02T18:00:00Z,27.8966,-93.5973,2.0,82.11966312,28.22655664,-99999.0,'11111222,11111222,99999999' 
TABS,ioos:station:wmo:42047:1,2016-07-02T18:30:00Z,27.8966,-93.5973,2.0,88.54463104,29.5295259,-99999.0,'11111222,11111222,99999999' 
TABS,ioos:station:wmo:42047:1,2016-07-02T19:00:00Z,27.8966,-93.5973,2.0,99.50945698,27.96427721,-99999.0,'11111222,11111222,99999999' 
TABS,ioos:station:wmo:42047:1,2016-07-02T19:30:00Z,27.8966,-93.5973,2.0,114.2223026,29.10215112,-99999.0,'11111222,11111222,99999999' 
TABS,ioos:station:wmo:42047:1,2016-07-02T20:00:00Z,27.8966,-93.5973,2.0,110.3146641,28.34293563,-99999.0,'11111222,11111222,99999999' 
TABS,ioos:station:wmo:42047:1,2016-07-02T20:30:00Z,27.8966,-93.5973,2.0,113.1513476,35.07458624,-99999.0,'11111222,11111222,99999999' 
TABS,ioos:station:wmo:42047:1,2016-07-02T21:00:00Z,27.8966,-93.5973,2.0,116.7607752,36.64489596,-99999.0,'11111222,11111222,99999999' 
TABS,ioos:station:wmo:42047:1,2016-07-02T21:30:00Z,27.8966,-93.5973,2.0,118.4592781,39.64031534,-99999.0,'11111222,11111222,99999999' 
TABS,ioos:station:wmo:42047:1,2016-07-02T22:00:00Z,27.8966,-93.5973,2.0,125.7315071,40.87406635,-99999.0,'11111222,11111222,99999999' 
TABS,ioos:station:wmo:42047:1,2016-07-02T22:30:00Z,27.8966,-93.5973,2.0,145.7799191,35.6881633,-99999.0,'11111222,11111222,99999999' 
TABS,ioos:station:wmo:42047:1,2016-07-02T23:00:00Z,27.8966,-93.5973,2.0,149.0415,36.42972962,-99999.0,'11111222,11111222,99999999' 
TABS,ioos:station:wmo:42047:1,2016-07-02T23:30:00Z,27.8966,-93.5973,2.0,151.9833376,33.7217808,-99999.0,'11111222,11111222,99999999' 
TABS,ioos:station:wmo:42047:1,2016-07-03T00:00:00Z,27.8966,-93.5973,2.0,150.8263974,31.83881907,-99999.0,'11111222,11111222,99999999' 
TABS,ioos:station:wmo:42047:1,2016-07-03T00:30:00Z,27.8966,-93.5973,2.0,154.808667,27.60548677,-99999.0,'11111222,11111222,99999999' 
TABS,ioos:station:wmo:42047:1,2016-07-03T01:00:00Z,27.8966,-93.5973,2.0,159.8900498,24.3441266,-99999.0,'11111222,11111222,99999999' 
TABS,ioos:station:wmo:42047:1,2016-07-03T01:30:00Z,27.8966,-93.5973,2.0,160.5018469,25.22666843,-99999.0,'11111222,11111222,99999999' 
TABS,ioos:station:wmo:42047:1,2016-07-03T02:00:00Z,27.8966,-93.5973,2.0,167.9883392,21.6234248,-99999.0,'11111222,11111222,99999999' 
TABS,ioos:station:wmo:42047:1,2016-07-03T02:30:00Z,27.8966,-93.5973,2.0,175.4012435,21.32865912,-99999.0,'11111222,11111222,99999999' 
TABS,ioos:station:wmo:42047:1,2016-07-03T03:00:00Z,27.8966,-93.5973,2.0,185.3556021,18.96278724,-99999.0,'11111222,11111222,99999999' 
TABS,ioos:station:wmo:42047:1,2016-07-03T03:30:00Z,27.8966,-93.5973,2.0,194.5506179,13.77172829,-99999.0,'11111222,11111222,99999999' 
TABS,ioos:station:wmo:42047:1,2016-07-03T04:00:00Z,27.8966,-93.5973,2.0,221.1432172,13.98287882,-99999.0,'11111222,11111222,99999999' 
TABS,ioos:station:wmo:42047:1,2016-07-03T04:30:00Z,27.8966,-93.5973,2.0,254.3144447,15.42437681,-99999.0,'11111222,11111222,99999999' 
TABS,ioos:station:wmo:42047:1,2016-07-03T05:00:00Z,27.8966,-93.5973,2.0,258.8910629,13.39089243,-99999.0,'11111222,11111222,99999999' 
TABS,ioos:station:wmo:42047:1,2016-07-03T05:30:00Z,27.8966,-93.5973,2.0,264.3913331,20.0560016,-99999.0,'11111222,11111222,99999999' 
TABS,ioos:station:wmo:42047:1,2016-07-03T06:00:00Z,27.8966,-93.5973,2.0,267.7260744,21.42686631,-99999.0,'11111222,11111222,99999999' 
TABS,ioos:station:wmo:42047:1,2016-07-03T06:30:00Z,27.8966,-93.5973,2.0,278.3825418,21.54009517,-99999.0,'11111222,11111222,99999999' 
TABS,ioos:station:wmo:42047:1,2016-07-03T07:00:00Z,27.8966,-93.5973,2.0,289.4404103,18.20803394,-99999.0,'11111222,11111222,99999999' 
TABS,ioos:station:wmo:42047:1,2016-07-03T07:30:00Z,27.8966,-93.5973,2.0,297.9168259,17.06594562,-99999.0,'11111222,11111222,99999999' 
TABS,ioos:station:wmo:42047:1,2016-07-03T08:00:00Z,27.8966,-93.5973,2.0,321.6328148,24.48836458,-99999.0,'11111222,11111222,99999999' 
TABS,ioos:station:wmo:42047:1,2016-07-03T08:30:00Z,27.8966,-93.5973,2.0,326.0614723,26.83110136,-99999.0,'11111222,11111222,99999999' 
TABS,ioos:station:wmo:42047:1,2016-07-03T09:00:00Z,27.8966,-93.5973,2.0,336.3178398,27.2116023,-99999.0,'11111222,11111222,99999999' 
TABS,ioos:station:wmo:42047:1,2016-07-03T09:30:00Z,27.8966,-93.5973,2.0,348.8822949,28.67822345,-99999.0,'11111222,11111222,99999999' 
TABS,ioos:station:wmo:42047:1,2016-07-03T10:00:00Z,27.8966,-93.5973,2.0,1.478479659,29.45980482,-99999.0,'11111222,11111222,99999999' 
TABS,ioos:station:wmo:42047:1,2016-07-03T10:30:00Z,27.8966,-93.5973,2.0,9.06775785,33.88343548,-99999.0,'11111222,11111222,99999999' 
TABS,ioos:station:wmo:42047:1,2016-07-03T11:00:00Z,27.8966,-93.5973,2.0,10.4627386,36.06970197,-99999.0,'11111222,11111222,99999999' 
TABS,ioos:station:wmo:42047:1,2016-07-03T11:30:00Z,27.8966,-93.5973,2.0,20.42556013,35.41674322,-99999.0,'11111222,11111222,99999999' 
TABS,ioos:station:wmo:42047:1,2016-07-03T12:00:00Z,27.8966,-93.5973,2.0,26.4667006,41.62223084,-99999.0,'11111222,11111222,99999999' 
TABS,ioos:station:wmo:42047:1,2016-07-03T12:30:00Z,27.8966,-93.5973,2.0,29.6006655,40.36847285,-99999.0,'11111222,11111222,99999999' 
TABS,ioos:station:wmo:42047:1,2016-07-03T13:00:00Z,27.8966,-93.5973,2.0,31.93649142,42.23246618,-99999.0,'11111222,11111222,99999999' 
TABS,ioos:station:wmo:42047:1,2016-07-03T13:30:00Z,27.8966,-93.5973,2.0,38.27802186,40.53423861,-99999.0,'11111222,11111222,99999999' 
TABS,ioos:station:wmo:42047:1,2016-07-03T14:00:00Z,27.8966,-93.5973,2.0,40.15847857,40.54876817,-99999.0,'11111222,11111222,99999999' 
TABS,ioos:station:wmo:42047:1,2016-07-03T14:30:00Z,27.8966,-93.5973,2.0,42.19888262,41.67009719,-99999.0,'11111222,11111222,99999999' 
TABS,ioos:station:wmo:42047:1,2016-07-03T15:00:00Z,27.8966,-93.5973,2.0,53.10670996,43.92600369,-99999.0,'11111222,11111222,99999999' 
TABS,ioos:station:wmo:42047:1,2016-07-03T15:30:00Z,27.8966,-93.5973,2.0,50.48148798,41.15797128,-99999.0,'11111222,11111222,99999999' 
TABS,ioos:station:wmo:42047:1,2016-07-03T16:00:00Z,27.8966,-93.5973,2.0,55.02028383,46.08507351,-99999.0,'11111222,11111222,99999999' 
TABS,ioos:station:wmo:42047:1,2016-07-03T16:30:00Z,27.8966,-93.5973,2.0,64.36516824,50.68939633,-99999.0,'11111222,11111222,99999999' 
TABS,ioos:station:wmo:42047:1,2016-07-03T17:00:00Z,27.8966,-93.5973,2.0,77.80293881,49.27224066,-99999.0,'11111222,11111222,99999999' 
TABS,ioos:station:wmo:42047:1,2016-07-03T17:30:00Z,27.8966,-93.5973,2.0,80.17436094,40.96083129,-99999.0,'11111222,11111222,99999999' 
TABS,ioos:station:wmo:42047:1,2016-07-03T18:00:00Z,27.8966,-93.5973,2.0,88.83974049,39.50810044,-99999.0,'11111222,11111222,99999999' 
TABS,ioos:station:wmo:42047:1,2016-07-03T18:30:00Z,27.8966,-93.5973,2.0,92.94556002,43.00682039,-99999.0,'11111222,11111222,99999999' 
TABS,ioos:station:wmo:42047:1,2016-07-03T19:00:00Z,27.8966,-93.5973,2.0,93.94782054,44.73615205,-99999.0,'11111222,11111222,99999999' 
TABS,ioos:station:wmo:42047:1,2016-07-03T19:30:00Z,27.8966,-93.5973,2.0,99.84192814,42.18077406,-99999.0,'11111222,11111222,99999999' 
TABS,ioos:station:wmo:42047:1,2016-07-03T20:00:00Z,27.8966,-93.5973,2.0,102.8467376,41.82700563,-99999.0,'11111222,11111222,99999999' 
TABS,ioos:station:wmo:42047:1,2016-07-03T20:30:00Z,27.8966,-93.5973,2.0,109.7724639,44.16375437,-99999.0,'11111222,11111222,99999999' 
TABS,ioos:station:wmo:42047:1,2016-07-03T21:00:00Z,27.8966,-93.5973,2.0,118.1046357,51.26471399,-99999.0,'11111222,11111222,99999999' 
TABS,ioos:station:wmo:42047:1,2016-07-03T21:30:00Z,27.8966,-93.5973,2.0,124.7912748,51.22770539,-99999.0,'11111222,11111222,99999999' 
TABS,ioos:station:wmo:42047:1,2016-07-03T22:00:00Z,27.8966,-93.5973,2.0,135.4379742,51.79001448,-99999.0,'11111222,11111222,99999999' 
TABS,ioos:station:wmo:42047:1,2016-07-03T22:30:00Z,27.8966,-93.5973,2.0,139.0785058,49.50972632,-99999.0,'11111222,11111222,99999999' 
TABS,ioos:station:wmo:42047:1,2016-07-03T23:00:00Z,27.8966,-93.5973,2.0,143.2148425,47.26005184,-99999.0,'11111222,11111222,99999999' 
TABS,ioos:station:wmo:42047:1,2016-07-03T23:30:00Z,27.8966,-93.5973,2.0,151.3893968,44.10547358,-99999.0,'11111222,11111222,99999999' 
TABS,ioos:station:wmo:42047:1,2016-07-04T00:00:00Z,27.8966,-93.5973,2.0,152.1018242,39.21782885,-99999.0,'11111222,11111222,99999999' 
TABS,ioos:station:wmo:42047:1,2016-07-04T00:30:00Z,27.8966,-93.5973,2.0,158.3499983,34.39646784,-99999.0,'11111222,11111222,99999999' 
TABS,ioos:station:wmo:42047:1,2016-07-04T01:00:00Z,27.8966,-93.5973,2.0,165.3402296,32.99407371,-99999.0,'11111222,11111222,99999999' 
TABS,ioos:station:wmo:42047:1,2016-07-04T01:30:00Z,27.8966,-93.5973,2.0,159.0959916,16.0033309,-99999.0,'11111222,11111222,99999999' 
TABS,ioos:station:wmo:42047:1,2016-07-04T02:00:00Z,27.8966,-93.5973,2.0,163.511419,12.75450117,-99999.0,'11111222,11111222,99999999' 
TABS,ioos:station:wmo:42047:1,2016-07-04T02:30:00Z,27.8966,-93.5973,2.0,185.6008343,13.01212511,-99999.0,'11111222,11111222,99999999' 
TABS,ioos:station:wmo:42047:1,2016-07-04T03:00:00Z,27.8966,-93.5973,2.0,197.5234864,15.7090197,-99999.0,'11111222,11111222,99999999' 
TABS,ioos:station:wmo:42047:1,2016-07-04T03:30:00Z,27.8966,-93.5973,2.0,213.906613,12.45865563,-99999.0,'11111222,11111222,99999999' 
TABS,ioos:station:wmo:42047:1,2016-07-04T04:00:00Z,27.8966,-93.5973,2.0,252.5983263,5.784747185,-99999.0,'11133222,11111222,99999999' 
TABS,ioos:station:wmo:42047:1,2016-07-04T04:30:00Z,27.8966,-93.5973,2.0,282.5112496,3.462210277,-99999.0,'11133222,11111222,99999999' 
TABS,ioos:station:wmo:42047:1,2016-07-04T05:00:00Z,27.8966,-93.5973,2.0,324.9191731,9.482620946,-99999.0,'11133222,11111222,99999999' 
TABS,ioos:station:wmo:42047:1,2016-07-04T05:30:00Z,27.8966,-93.5973,2.0,322.4494276,13.7989746,-99999.0,'11111222,11111222,99999999' 
TABS,ioos:station:wmo:42047:1,2016-07-04T06:00:00Z,27.8966,-93.5973,2.0,345.6816218,20.17678369,-99999.0,'11111222,11111222,99999999' 
TABS,ioos:station:wmo:42047:1,2016-07-04T06:30:00Z,27.8966,-93.5973,2.0,345.7514368,21.57369231,-99999.0,'11111222,11111222,99999999' 
TABS,ioos:station:wmo:42047:1,2016-07-04T07:00:00Z,27.8966,-93.5973,2.0,357.7937638,22.85694643,-99999.0,'11111222,11111222,99999999' 
TABS,ioos:station:wmo:42047:1,2016-07-04T07:30:00Z,27.8966,-93.5973,2.0,354.0397519,29.66035064,-99999.0,'11111222,11111222,99999999' 
TABS,ioos:station:wmo:42047:1,2016-07-04T08:00:00Z,27.8966,-93.5973,2.0,358.2863903,34.10525619,-99999.0,'11111222,11111222,99999999' 
TABS,ioos:station:wmo:42047:1,2016-07-04T08:30:00Z,27.8966,-93.5973,2.0,0.235509528,34.09028747,-99999.0,'11111222,11111222,99999999' 
TABS,ioos:station:wmo:42047:1,2016-07-04T09:00:00Z,27.8966,-93.5973,2.0,10.05034217,35.41340565,-99999.0,'11111222,11111222,99999999' 
TABS,ioos:station:wmo:42047:1,2016-07-04T09:30:00Z,27.8966,-93.5973,2.0,13.05056406,41.5840378,-99999.0,'11111222,11111222,99999999' 
TABS,ioos:station:wmo:42047:1,2016-07-04T10:00:00Z,27.8966,-93.5973,2.0,14.98587648,42.15362855,-99999.0,'11111222,11111222,99999999' 
TABS,ioos:station:wmo:42047:1,2016-07-04T10:30:00Z,27.8966,-93.5973,2.0,20.03142144,45.7474513,-99999.0,'11111222,11111222,99999999' 
TABS,ioos:station:wmo:42047:1,2016-07-04T11:00:00Z,27.8966,-93.5973,2.0,39.93248679,38.18453221,-99999.0,'11111222,11111222,99999999' 
TABS,ioos:station:wmo:42047:1,2016-07-04T11:30:00Z,27.8966,-93.5973,2.0,40.69275496,36.05822652,-99999.0,'11111222,11111222,99999999' 
TABS,ioos:station:wmo:42047:1,2016-07-04T12:00:00Z,27.8966,-93.5973,2.0,46.96375817,37.1449189,-99999.0,'11111222,11111222,99999999' 
TABS,ioos:station:wmo:42047:1,2016-07-04T12:30:00Z,27.8966,-93.5973,2.0,47.10185446,37.21177905,-99999.0,'11111222,11111222,99999999' 
TABS,ioos:station:wmo:42047:1,2016-07-04T13:00:00Z,27.8966,-93.5973,2.0,51.24463702,43.03530179,-99999.0,'11111222,11111222,99999999' 
TABS,ioos:station:wmo:42047:1,2016-07-04T13:30:00Z,27.8966,-93.5973,2.0,54.61996306,44.38700373,-99999.0,'11111222,11111222,99999999' 
TABS,ioos:station:wmo:42047:1,2016-07-04T14:00:00Z,27.8966,-93.5973,2.0,58.73361315,51.28908266,-99999.0,'11111222,11111222,99999999' 
TABS,ioos:station:wmo:42047:1,2016-07-04T14:30:00Z,27.8966,-93.5973,2.0,0.0,0.0,-99999.0,'11133222,11111222,99999999' 
TABS,ioos:station:wmo:42047:1,2016-07-04T15:00:00Z,27.8966,-93.5973,2.0,55.0865722,46.63318239,-99999.0,'11111222,11111222,99999999' 
TABS,ioos:station:wmo:42047:1,2016-07-04T15:30:00Z,27.8966,-93.5973,2.0,60.16297358,51.63448654,-99999.0,'11111222,11111222,99999999' 
TABS,ioos:station:wmo:42047:1,2016-07-04T16:00:00Z,27.8966,-93.5973,2.0,55.21037464,51.73809525,-99999.0,'11111222,11111222,99999999' 